GALAXY 3C (G-3C)

Last updated on Sun Jun 21 2026 00:03:03 GMT+0000 (Coordinated Universal Time)

1 27445U 02030A 26171.35461541 -.00000158 00000+0 00000+0 0 9996 2 27445 3.7412 77.9368 0001690 28.7445 194.6953 1.00271504 46521
UTC large
Height (km)
Speed (km/s)
/
Latitude / Longitude
Inclination (degrees)
Orbital Period (minutes)
Azimuth
Elevation
Range (km)
Doppler Factor

Next 0 passes for location: London (51.5072 / 0.1276)

No passes found over London.
GALAXY 3C (G-3C)